• In Hungary
  • List of Countries
  • For 7 days
  • Water Temperature
  • Satellite Maps
  • Weather Map
  • News
  • Weather Widgets
  • user-avatar
    Login

    Hourly Weather Basurmanovka

    Today, 25 May, Friday

    Time Temperature Precipitation Wind Pressure Humidity
    00:00 +16°C° 0.2 mm 0 mps 744 mmHg 83%
    01:00 +16°C° 0.2 mm 0 mps 744 mmHg 84%
    02:00 +15°C° 0.1 mm 0 mps 744 mmHg 85%
    03:00 +15°C° 0.1 mm 0 mps 744 mmHg 87%
    04:00 +15°C° 0 mm 0 mps 743 mmHg 85%
    05:00 +18°C° 0 mm 1 mps 742 mmHg 82%
    06:00 +19°C° 0 mm 1 mps 742 mmHg 79%
    07:00 +21°C° 0 mm 1 mps 742 mmHg 76%
    08:00 +20°C° 0 mm 2 mps 741 mmHg 74%
    09:00 +21°C° 0 mm 4 mps 741 mmHg 72%
    10:00 +20°C° 0 mm 4 mps 741 mmHg 72%
    11:00 +19°C° 0.6 mm 4 mps 741 mmHg 75%
    12:00 +18°C° 0.6 mm 3 mps 741 mmHg 79%
    13:00 +17°C° 0.6 mm 2 mps 741 mmHg 82%
    14:00 +17°C° 0.2 mm 3 mps 741 mmHg 82%
    15:00 +17°C° 0.2 mm 3 mps 741 mmHg 82%
    16:00 +17°C° 0.2 mm 4 mps 741 mmHg 82%
    17:00 +15°C° 0.1 mm 4 mps 741 mmHg 83%
    18:00 +14°C° 0.1 mm 5 mps 741 mmHg 85%
    19:00 +13°C° 0.1 mm 5 mps 741 mmHg 86%
    20:00 +12°C° 0.4 mm 5 mps 741 mmHg 86%
    21:00 +10°C° 0.4 mm 5 mps 741 mmHg 86%
    22:00 +9°C° 0.4 mm 5 mps 741 mmHg 85%
    23:00 +8°C° 0.5 mm 5 mps 741 mmHg 83%

    Tomorrow, 26 May, Saturday

    Time Temperature Precipitation Wind Pressure Humidity
    00:00 +7°C° 0.5 mm 5 mps 741 mmHg 82%
    01:00 +6°C° 0.5 mm 5 mps 741 mmHg 80%
    02:00 +5°C° 0.1 mm 6 mps 742 mmHg 79%
    03:00 +5°C° 0.1 mm 6 mps 742 mmHg 79%
    04:00 +4°C° 0.1 mm 6 mps 742 mmHg 78%
    05:00 +5°C° 0 mm 7 mps 742 mmHg 76%
    06:00 +6°C° 0 mm 7 mps 743 mmHg 74%
    07:00 +6°C° 0 mm 8 mps 743 mmHg 71%
    08:00 +7°C° 0 mm 8 mps 744 mmHg 63%
    09:00 +10°C° 0 mm 8 mps 744 mmHg 55%
    10:00 +11°C° 0 mm 8 mps 744 mmHg 47%
    11:00 +11°C° 0 mm 8 mps 745 mmHg 46%
    12:00 +12°C° 0 mm 8 mps 745 mmHg 44%
    13:00 +12°C° 0 mm 8 mps 745 mmHg 43%
    14:00 +12°C° 0 mm 8 mps 746 mmHg 43%
    15:00 +12°C° 0 mm 8 mps 746 mmHg 44%
    16:00 +12°C° 0 mm 8 mps 746 mmHg 44%
    17:00 +11°C° 0 mm 7 mps 747 mmHg 47%
    18:00 +10°C° 0 mm 6 mps 747 mmHg 50%
    19:00 +9°C° 0 mm 6 mps 748 mmHg 53%
    20:00 +8°C° 0 mm 5 mps 749 mmHg 55%
    21:00 +7°C° 0 mm 5 mps 749 mmHg 57%
    22:00 +5°C° 0 mm 4 mps 750 mmHg 59%
    23:00 +5°C° 0 mm 4 mps 750 mmHg 61%

    Day after tomorrow, 27 May, Sunday

    Time Temperature Precipitation Wind Pressure Humidity
    00:00 +4°C° 0 mm 3 mps 751 mmHg 64%
    01:00 +3°C° 0 mm 3 mps 751 mmHg 66%
    02:00 +2°C° 0 mm 3 mps 751 mmHg 68%
    03:00 +3°C° 0 mm 2 mps 751 mmHg 70%
    04:00 +2°C° 0 mm 2 mps 751 mmHg 72%
    05:00 +4°C° 0 mm 2 mps 752 mmHg 67%
    06:00 +5°C° 0 mm 3 mps 752 mmHg 63%
    07:00 +8°C° 0 mm 3 mps 752 mmHg 58%
    08:00 +9°C° 0 mm 3 mps 752 mmHg 53%
    09:00 +11°C° 0 mm 4 mps 751 mmHg 48%
    10:00 +13°C° 0 mm 4 mps 751 mmHg 44%
    11:00 +14°C° 0 mm 5 mps 751 mmHg 44%
    12:00 +15°C° 0 mm 5 mps 750 mmHg 44%
    13:00 +16°C° 0 mm 5 mps 750 mmHg 45%
    14:00 +16°C° 0 mm 6 mps 749 mmHg 47%
    15:00 +17°C° 0 mm 6 mps 749 mmHg 49%
    16:00 +17°C° 0 mm 6 mps 748 mmHg 51%
    17:00 +16°C° 0 mm 6 mps 748 mmHg 56%
    18:00 +15°C° 0 mm 5 mps 747 mmHg 61%
    19:00 +15°C° 0 mm 5 mps 747 mmHg 66%
    20:00 +14°C° 0 mm 5 mps 746 mmHg 67%
    21:00 +13°C° 0 mm 5 mps 746 mmHg 69%
    22:00 +10°C° 0 mm 5 mps 745 mmHg 71%
    23:00 +10°C° 0 mm 5 mps 745 mmHg 71%

    28 May, Monday

    Time Temperature Precipitation Wind Pressure Humidity
    00:00 +10°C° 0 mm 5 mps 744 mmHg 72%
    01:00 +10°C° 0 mm 6 mps 743 mmHg 72%
    02:00 +10°C° 0.3 mm 6 mps 742 mmHg 76%
    03:00 +9°C° 0.3 mm 6 mps 741 mmHg 80%
    04:00 +9°C° 0.3 mm 7 mps 740 mmHg 84%
    05:00 +9°C° 0.9 mm 7 mps 740 mmHg 85%
    06:00 +9°C° 0.9 mm 8 mps 739 mmHg 87%
    07:00 +9°C° 0.9 mm 8 mps 739 mmHg 88%
    08:00 +9°C° 0.8 mm 8 mps 739 mmHg 88%
    09:00 +8°C° 0.8 mm 7 mps 739 mmHg 88%
    10:00 +8°C° 0.8 mm 7 mps 739 mmHg 88%
    11:00 +8°C° 0.3 mm 7 mps 740 mmHg 83%
    12:00 +9°C° 0.3 mm 7 mps 740 mmHg 78%
    13:00 +10°C° 0.3 mm 7 mps 741 mmHg 74%
    14:00 +10°C° 0.4 mm 7 mps 741 mmHg 71%
    15:00 +10°C° 0.4 mm 7 mps 741 mmHg 68%
    16:00 +10°C° 0.4 mm 7 mps 741 mmHg 65%
    17:00 +9°C° 0.2 mm 7 mps 742 mmHg 67%
    18:00 +8°C° 0.2 mm 6 mps 742 mmHg 69%
    19:00 +7°C° 0.2 mm 5 mps 743 mmHg 71%
    20:00 +6°C° 0 mm 5 mps 743 mmHg 74%
    21:00 +5°C° 0 mm 4 mps 744 mmHg 76%
    22:00 +3°C° 0 mm 4 mps 744 mmHg 78%
    23:00 +3°C° 0 mm 4 mps 744 mmHg 79%

    29 May, Tuesday

    Time Temperature Precipitation Wind Pressure Humidity
    00:00 +2°C° 0 mm 3 mps 744 mmHg 81%
    01:00 +2°C° 0 mm 3 mps 744 mmHg 82%
    02:00 +1°C° 0 mm 3 mps 744 mmHg 83%
    03:00 +1°C° 0 mm 3 mps 744 mmHg 84%
    04:00 0°C° 0 mm 3 mps 744 mmHg 85%
    05:00 +2°C° 0 mm 3 mps 744 mmHg 80%
    06:00 +3°C° 0 mm 4 mps 744 mmHg 74%
    07:00 +3°C° 0 mm 5 mps 744 mmHg 68%
    08:00 +5°C° 0.1 mm 5 mps 744 mmHg 63%
    09:00 +6°C° 0.1 mm 5 mps 744 mmHg 59%
    10:00 +7°C° 0.1 mm 6 mps 744 mmHg 54%
    11:00 +8°C° 0 mm 6 mps 744 mmHg 52%
    12:00 +9°C° 0 mm 6 mps 743 mmHg 50%
    13:00 +9°C° 0 mm 6 mps 743 mmHg 47%
    14:00 +10°C° 0.1 mm 6 mps 743 mmHg 49%
    15:00 +10°C° 0.1 mm 5 mps 743 mmHg 51%
    16:00 +10°C° 0.1 mm 5 mps 742 mmHg 53%
    17:00 +11°C° 0.2 mm 4 mps 742 mmHg 60%
    18:00 +10°C° 0.2 mm 3 mps 742 mmHg 67%
    19:00 +9°C° 0.2 mm 2 mps 742 mmHg 74%
    20:00 +8°C° 0.1 mm 2 mps 742 mmHg 79%
    21:00 +7°C° 0.1 mm 2 mps 743 mmHg 84%
    22:00 +7°C° 0.1 mm 1 mps 743 mmHg 90%
    23:00 +6°C° 0 mm 1 mps 743 mmHg 91%

    30 May, Wednesday

    Time Temperature Precipitation Wind Pressure Humidity
    00:00 +6°C° 0 mm 1 mps 743 mmHg 92%
    01:00 +5°C° 0 mm 1 mps 742 mmHg 93%
    02:00 +5°C° 0 mm 1 mps 743 mmHg 94%
    03:00 +4°C° 0 mm 1 mps 743 mmHg 94%
    04:00 +4°C° 0 mm 1 mps 743 mmHg 94%
    05:00 +5°C° 0 mm 1 mps 743 mmHg 89%
    06:00 +7°C° 0 mm 1 mps 743 mmHg 84%
    07:00 +9°C° 0 mm 1 mps 743 mmHg 79%
    08:00 +10°C° 0 mm 2 mps 743 mmHg 72%
    09:00 +11°C° 0 mm 3 mps 743 mmHg 64%
    10:00 +13°C° 0 mm 4 mps 743 mmHg 56%
    11:00 +14°C° 0 mm 5 mps 742 mmHg 56%
    12:00 +15°C° 0 mm 5 mps 741 mmHg 56%
    13:00 +16°C° 0 mm 6 mps 741 mmHg 56%
    14:00 +16°C° 0.1 mm 7 mps 740 mmHg 61%
    15:00 +16°C° 0.1 mm 7 mps 739 mmHg 67%
    16:00 +17°C° 0.1 mm 7 mps 738 mmHg 72%
    17:00 +17°C° 0.6 mm 7 mps 738 mmHg 75%
    18:00 +16°C° 0.6 mm 7 mps 737 mmHg 78%
    19:00 +16°C° 0.6 mm 6 mps 737 mmHg 81%
    20:00 +16°C° 0.3 mm 6 mps 736 mmHg 83%
    21:00 +15°C° 0.3 mm 6 mps 736 mmHg 84%
    22:00 +14°C° 0.3 mm 6 mps 735 mmHg 85%
    23:00 +14°C° 0.2 mm 7 mps 735 mmHg 86%
    Show more